CW1656 Weather Reports


time (UTC)temp
F
wind
direction
speed
knots
gust
knots
rain 1hr
in
rain 24hr
in
rain mn
in
humidity
%
barometer
mb
20260505051542 62 167 0.0 6.1 0.00 0.00 0.00 72 1003.8
20260505050117 62 167 2.6 9.6 0.00 0.00 0.00 71 1003.8
20260505041548 61 175 2.6 7.0 0.00 0.00 0.00 68 1003.8
20260505040031 61 174 2.6 7.8 0.00 0.00 0.00 67 1004.0
20260505034530 61 140 0.9 7.0 0.00 0.00 0.00 67 1004.1
20260505033030 61 140 0.9 6.1 0.00 0.00 0.00 65 1004.2
20260505031534 60 157 1.7 7.8 0.00 0.00 0.00 65 1004.4
20260505030035 61 93 0.0 3.5 0.00 0.00 0.00 59 1004.8
20260505024529 61 153 0.9 2.6 0.00 0.00 0.00 57 1004.1
20260505023035 59 140 0.0 0.9 0.00 0.00 0.00 61 1004.0
20260505021528 61 140 0.0 1.7 0.00 0.00 0.00 57 1004.0
20260505020029 62 140 0.0 1.7 0.00 0.00 0.00 53 1004.2
20260505014526 62 140 0.9 1.7 0.00 0.00 0.00 52 1004.4
20260505013026 62 140 0.0 1.7 0.00 0.00 0.00 53 1004.4
20260505011530 63 140 0.0 2.6 0.00 0.00 0.00 52 1004.3
20260505010025 63 140 0.0 1.7 0.00 0.00 0.00 52 1004.2
20260505004533 63 112 0.0 0.0 0.00 0.00 0.00 52 1004.1
20260505003023 64 112 0.0 1.7 0.00 0.00 0.00 49 1004.1
20260505001523 65 63 0.0 0.9 0.00 0.00 0.00 47 1004.2
20260505000029 66 16 0.0 2.6 0.00 0.00 0.00 47 1004.3
20260504234520 68 268 0.0 1.7 0.00 0.00 0.00 45 1004.2
20260504233020 69 283 0.0 1.7 0.00 0.00 0.00 45 1004.2
20260504231519 70 84 0.0 4.3 0.00 0.00 0.00 43 1004.1
20260504230020 71 259 0.9 3.5 0.00 0.00 0.00 43 1004.2
20260504224518 71 252 0.9 8.7 0.00 0.00 0.00 41 1004.3
20260504223018 72 326 2.6 8.7 0.00 0.00 0.00 38 1004.1
20260504221520 73 355 2.6 6.1 0.00 0.00 0.00 38 1004.0
20260504220017 73 155 0.9 7.0 0.00 0.00 0.00 39 1003.9
20260504214515 73 246 0.9 10.4 0.00 0.00 0.00 40 1004.0
20260504213035 74 115 0.9 7.0 0.00 0.00 0.00 39 1004.2
20260504211518 73 284 1.7 7.0 0.00 0.00 0.00 39 1004.2
20260504210014 74 235 1.7 11.3 0.00 0.00 0.00 38 1004.3
20260504204510 74 130 0.9 7.8 0.00 0.00 0.00 42 1004.4
20260504203010 74 159 3.5 10.4 0.00 0.00 0.00 38 1004.5
20260504201512 74 284 1.7 6.1 0.00 0.00 0.00 40 1004.6
20260504200006 74 277 2.6 10.4 0.00 0.00 0.00 39 1004.8
20260504194503 74 153 0.0 7.8 0.00 0.00 0.00 44 1005.1
20260504193111 74 222 1.7 4.3 0.00 0.00 0.00 40 1005.3
20260504191557 73 113 1.7 9.6 0.00 0.00 0.00 46 1005.5
20260504190114 73 224 0.9 7.0 0.00 0.00 0.00 43 1005.8
20260504184600 73 275 1.7 8.7 0.00 0.00 0.00 44 1005.9
20260504183050 73 299 4.3 8.7 0.00 0.00 0.00 43 1006.2
20260504181548 73 248 2.6 7.0 0.00 0.00 0.00 44 1006.3
20260504180048 72 162 1.7 6.1 0.00 0.00 0.00 48 1006.5
20260504174544 72 246 2.6 8.7 0.00 0.00 0.00 48 1006.7
20260504173048 71 167 2.6 10.4 0.00 0.00 0.00 49 1006.6
20260504171539 71 260 1.7 7.8 0.00 0.00 0.00 52 1006.8
20260504081514 49 158 0.0 4.3 0.00 0.00 0.00 63 1009.2